#timestamp,LO_Frequency,Hit,StdDev 
1590188415.7,286046999.9,N
1590188435.5,286047001.8,N
1590188455.4,286047003.5,N
1590188475.2,286047001.3,N
1590188495.1,286047003.3,N
1590188496.0,286047003.3,N
1590188515.8,286047002.4,N
1590188535.6,286047003.9,N
1590188555.5,286047002.5,N
1590188575.3,286046998.8,N
1590188595.1,286047001.9,N
1590188615.9,286047000.7,N
1590188635.7,286047002.2,N
1590188655.6,286047003.5,N
1590188705.4,286047004.4,E
1590188715.3,286046998.8,N
1590188735.2,286046995.0,P
1590188755.0,286046999.4,N
1590188755.9,286046999.4,N
1590188775.8,286046997.3,N
1590188795.6,286046999.6,N
1590188815.4,286046998.2,N
1590188835.3,286046992.4,Y
1590188855.1,286046995.5,P
1590188875.9,286047000.1,N
1590188895.7,286047002.3,N
1590188915.5,286047000.9,N
1590188935.4,286046993.9,N
1590188955.2,286046988.8,Y
1590188975.1,286046996.7,P
1590188976.0,286046996.7,P
1590188995.8,286046998.2,N
1590189015.6,286046998.8,N
1590189035.5,286047000.5,N
1590189055.3,286047000.0,N
1590189075.1,286046998.6,N
1590189095.9,286046998.3,N
1590189115.7,286046999.6,N
1590189135.6,286046997.1,N
1590189155.4,286046997.9,N
1590189175.2,286046997.6,N
1590189195.1,286046996.2,Y
1590189196.0,286046996.2,P
1590189215.8,286046997.4,N
1590189235.7,286046995.1,P
1590189255.5,286046994.2,Y
1590189275.3,286046998.1,P
1590189295.2,286046999.9,N
1590189315.0,286046998.7,N
1590189315.9,286046998.7,N
1590189335.8,286046999.6,N
1590189355.6,286046998.7,N
1590189375.4,286046999.6,N
1590189395.3,286046997.3,N
1590189415.1,286046997.7,N
1590189435.8,286046997.2,N
1590189455.7,286046996.9,Y
1590189475.5,286047000.7,P
1590189495.4,286046999.3,N
1590189515.5,286046996.8,P
1590189535.4,286046997.8,N
1590189555.2,286046993.3,Y
1590189575.1,286046997.5,P
1590189576.0,286046997.5,P
1590189595.8,286046997.5,P
1590189615.6,286046997.3,Y
1590189635.5,286046998.6,P
1590189655.3,286046998.6,P
1590189675.2,286047000.7,N
1590189695.9,286047001.0,N
1590189715.7,286047002.5,N
1590189735.6,286047002.2,N
1590189755.4,286047002.5,N
1590189775.3,286047001.7,N
1590189795.1,286046998.6,N
1590189815.8,286047000.9,N
1590189835.7,286047002.0,N
1590189855.5,286047000.9,N
1590189875.4,286047001.5,N
1590189895.2,286047005.0,Y
1590189915.0,286047007.6,P
1590189915.9,286047007.6,N
1590189935.8,286047004.4,N
1590189955.6,286047005.6,N
1590189975.5,286047002.9,N
1590189995.3,286047004.7,N
1590190015.1,286047007.1,Y
1590190035.9,286046999.8,P
1590190055.7,286046998.1,N
1590190075.5,286046999.4,N
1590190095.4,286046995.8,N
1590190115.2,286046993.8,N
1590190135.1,286046993.3,N
1590190136.0,286046993.3,N
1590190155.8,286046995.0,N
1590190175.7,286046998.3,N
1590190195.5,286046996.7,N
1590190215.3,286047001.1,N
1590190235.2,286047001.2,N
1590190255.0,286046999.9,N
1590190255.9,286046999.9,N
1590190275.7,286046998.1,N
1590190295.6,286047001.1,N
1590190315.4,286047000.8,N
1590190335.3,286047001.1,N
1590190355.1,286046998.6,N
1590190356.0,286046998.6,N
1590190375.8,286046998.1,N
1590190395.7,286047004.1,N
1590190415.5,286047001.0,N
1590190435.3,286047001.2,N
1590190455.2,286047001.8,N
1590190475.0,286047002.7,N
1590190475.9,286047002.7,N
1590190495.8,286046998.2,N
1590190515.6,286046999.6,N
1590190535.4,286046999.7,N
1590190555.3,286047002.3,N
1590190575.1,286047003.8,N
1590190595.9,286046999.9,N
1590190615.7,286046998.7,N
1590190635.5,286047000.0,N
1590190655.4,286047000.6,N
1590190675.2,286047002.0,N
1590190695.0,286047000.6,N
1590190695.9,286047000.6,N
1590190715.8,286047000.8,N
1590190735.6,286046999.9,N
1590190755.5,286047002.8,N
1590190775.3,286047004.0,N
1590190795.1,286047001.5,N
1590190815.9,286047002.1,N
1590190835.7,286047002.4,N
1590190855.6,286046999.8,N
1590190875.4,286047004.4,N
1590190895.2,286047002.5,N
1590190915.1,286046999.6,N
1590190916.0,286046999.6,N
1590190935.8,286046998.1,N
1590190955.7,286047006.9,Y
1590190975.5,286047007.2,P
1590190995.3,286047003.6,N
1590191015.2,286047003.6,N
1590191035.0,286047003.5,N
1590191035.9,286047003.5,N
1590191055.7,286047001.9,N
1590191075.6,286047004.2,N
1590191095.4,286047003.0,N
1590191115.3,286047002.3,N
1590191135.1,286047003.1,N
1590191155.8,286047002.1,N
1590191175.7,286047001.0,N
1590191195.5,286047000.4,N
1590191215.4,286047002.7,N
1590191235.2,286046999.8,N
1590191255.0,286047000.7,N
1590191255.9,286047000.7,N
1590191275.8,286047002.5,N
1590191295.6,286047006.0,Y
1590191315.5,286047001.7,P
1590191335.3,286047000.1,N
1590191355.1,286046998.1,N
1590191375.9,286046998.4,N
1590191395.7,286046996.5,N
1590191415.5,286046998.7,N
1590191435.4,286046995.7,N
1590191455.2,286046996.4,N
1590191475.1,286046996.6,N
1590191476.0,286046996.6,N
1590191495.8,286046997.0,N
1590191515.6,286046999.5,N
1590191535.5,286047002.3,N
1590191555.3,286047000.5,N
1590191575.2,286047001.2,N
1590191595.9,286046998.8,N
1590191615.7,286046998.8,N
1590191635.6,286046996.8,N
1590191655.4,286046995.1,N
1590191675.2,286046999.2,N
1590191695.1,286047001.2,N
1590191696.0,286047001.2,N
1590191715.8,286047000.5,N
1590191735.7,286046998.5,N
1590191755.5,286046998.3,N
1590191775.3,286046996.6,N
1590191795.2,286046999.6,N
1590191815.0,286046998.7,N
1590191815.9,286046998.7,N
1590191835.8,286047005.9,N
1590191855.6,286046995.0,N
1590191875.4,286047000.2,N
1590191895.3,286046998.5,N
1590191915.1,286047000.3,N
1590191935.9,286047002.5,N
1590191955.7,286047000.7,N
1590191975.5,286046998.5,N
1590191995.4,286047000.8,N
